CDT,Max TemperatureF,Mean TemperatureF,Min TemperatureF,Max Dew PointF,MeanDew PointF,Min DewpointF,Max Humidity, Mean Humidity, Min Humidity, Max Sea Level PressureIn, Mean Sea Level PressureIn, Min Sea Level PressureIn, Max VisibilityMiles, Mean VisibilityMiles, Min VisibilityMiles, Max Wind SpeedMPH, Mean Wind SpeedMPH, Max Gust SpeedMPH,PrecipitationIn, CloudCover, Events, WindDirDegrees
2013-3-1,28,22,15,16,13,9,77,64,54,30.39,30.34,30.26,10,10,10,12,8,17,0.00,5,,29
2013-3-2,32,18,5,10,7,3,96,63,32,30.40,30.31,30.20,10,10,10,7,3,,0.00,2,,81
2013-3-3,32,25,18,9,8,6,65,48,35,30.18,30.08,30.00,10,10,10,13,6,20,0.00,5,,118
2013-3-4,28,26,23,22,18,8,91,76,43,30.06,29.99,29.94,10,4,0,15,9,20,0.14,8,Fog-Snow,105
2013-3-5,28,24,21,23,21,17,93,83,72,30.33,30.07,29.96,10,3,0,13,7,,0.27,8,Fog-Snow,46
2013-3-6,28,19,8,18,14,5,92,75,61,30.45,30.39,30.33,10,9,3,9,6,,0.00,5,,334
2013-3-7,30,18,5,16,10,0,91,71,54,30.43,30.37,30.32,10,8,4,12,3,,0.00,0,,133
2013-3-8,37,28,18,27,22,15,88,74,64,30.35,30.26,30.09,10,6,4,13,8,20,0.00,0,,140
2013-3-9,36,34,33,36,33,27,100,93,75,30.09,29.83,29.69,7,2,0,15,8,20,0.32,8,Fog-Rain,142
2013-3-10,34,31,28,34,27,22,100,81,72,29.96,29.89,29.78,10,9,4,20,12,29,0.01,8,Rain-Snow,358
2013-3-11,30,26,21,22,20,16,81,74,64,29.88,29.81,29.73,10,10,10,16,12,21,0.00,7,,328
2013-3-12,28,24,19,18,13,8,78,64,45,30.22,29.98,29.85,10,9,2,18,11,30,0.00,7,Snow,311
2013-3-13,30,21,12,16,11,8,84,65,43,30.41,30.33,30.24,10,10,10,12,8,,0.00,1,,278
2013-3-14,41,32,24,26,22,16,88,73,57,30.25,30.13,30.03,10,7,2,10,6,,0.03,4,Snow,149
2013-3-15,33,28,23,29,25,19,93,86,75,30.02,29.91,29.82,10,4,1,13,6,17,0.16,8,Rain-Snow,35
2013-3-16,23,18,12,19,10,1,93,69,50,30.28,30.11,29.91,10,10,8,15,10,21,0.00,3,,328
2013-3-17,27,16,5,16,5,-3,70,57,44,30.31,30.14,29.88,10,10,10,14,8,22,0.00,4,,104
2013-3-18,28,20,10,27,18,4,93,81,68,29.84,29.67,29.58,10,4,0,24,15,33,0.06,8,Fog-Snow,205
2013-3-19,21,13,5,4,0,-4,73,59,44,30.23,30.07,29.85,10,10,5,21,16,28,0.00,0,,288
2013-3-20,19,11,3,2,-2,-6,64,55,46,30.26,30.20,30.14,10,10,10,21,14,28,0.09,0,,298
2013-3-21,26,14,1,8,3,-3,80,60,44,30.17,30.12,30.08,10,10,10,8,3,,0.00,0,,319
2013-3-22,35,21,7,15,9,3,92,60,37,30.13,30.10,30.06,10,10,9,6,1,,0.00,0,,299
2013-3-23,37,26,15,19,14,10,80,60,39,30.17,30.14,30.11,10,10,7,9,2,,0.00,0,,292
2013-3-24,32,29,26,25,21,18,86,71,59,30.11,30.05,29.97,10,9,2,14,5,18,0.00,7,Snow,6
2013-3-25,36,28,21,20,17,13,71,59,44,30.24,30.15,30.08,10,10,10,17,9,20,0.00,2,,336
2013-3-26,37,30,24,21,19,16,75,64,42,30.32,30.29,30.24,10,10,10,10,7,,0.00,6,,295
2013-3-27,42,31,21,20,17,14,82,56,35,30.36,30.34,30.31,10,10,10,6,1,,0.00,2,,294
2013-3-28,42,30,19,25,21,16,92,65,40,30.36,30.33,30.30,10,9,6,9,2,,0.00,0,,151
2013-3-29,46,37,28,34,29,23,85,72,54,30.30,30.22,30.08,10,9,7,14,4,,0.00,5,Rain,147
2013-3-30,52,44,35,41,36,30,100,82,66,30.06,29.90,29.86,10,6,2,12,8,18,0.36,5,Rain-Thunderstorm,227
2013-3-31,39,31,23,31,23,12,92,68,36,30.11,29.89,29.79,10,8,4,23,12,33,0.00,4,,297